Location: Augustenthal
(51.7167°N, 10.2833°E)
Time: 09:10:20
(UTC+00:00)

Cosmos 1703 Rocket - Pass Details

Date: 18 May 2021
Orbit: 606 x 633 km, 82.5° (Epoch: 15 June)

Event Time Altitude Azimuth Distance (km) Brightness Sun altitude
Exits shadow 22:34:26 26° 216° (SW) 1,225 4.7 -18.0°
Maximum altitude 22:36:43 56° 284° (WNW) 748 4.0 -18.0°
Drops below altitude 10° 22:41:07 10° 3° (N) 2,015 7.4 -18.1°
Sets 22:43:25 0° 8° (N) 2,931 8.5 -18.2°
